Regional Weather Roundup
Issued by NWS

Home | Current Version | Previous Version | Graphics & Text | Print | Product List | Glossary Off
Versions: 1 2 3 4 5 6 7 8 9 10 11 12 13 14 15 16 17 18 19 20 21 22 23 24 25 26 27 28 29 30 31 32 33 34 35 36 37 38 39 40 41 42 43 44 45 46 47 48 49 50

000
ASUS43 KMKX 301800
RWRWI

WISCONSIN REGIONAL WEATHER ROUNDUP
NATIONAL WEATHER SERVICE MILWAUKEE/SULLIVAN WI
100 PM CDT SAT APR 30 2016

NOTE: "FAIR" INDICATES FEW OR NO CLOUDS BELOW 12,000 FEET WITH NO
SIGNIFICANT WEATHER AND/OR OBSTRUCTIONS TO VISIBILITY.

WIZ001-002-006>008-014>016-023>028-301900-
NORTHWEST WISCONSIN

CITY           SKY/WX    TMP DP  RH WIND       PRES   REMARKS
SUPERIOR ARPT  SUNNY     46  36  69 NE16G30   30.24F
ASHLAND        MOSUNNY   49  38  65 NE18G28   30.25S
6HR MIN TEMP:  37; 6HR MAX TEMP:  50;

HAYWARD        MOSUNNY   54  33  45 NE14G25   30.15F
6HR MIN TEMP:  37; 6HR MAX TEMP:  55;

SIREN          MOSUNNY   57  31  37 NE17G25   30.13F
CUMBERLAND     PTSUNNY   54  32  43 NE15G22   30.11F
RICE LAKE      PTSUNNY   57  31  36 E14G20    30.12F
CHETEK         PTSUNNY   56  34  44 E8G25     30.10F
LADYSMITH      PTSUNNY   56  33  40 E15G24    30.13F
6HR MIN TEMP:  38; 6HR MAX TEMP:  56;

EAU CLAIRE     CLOUDY    57  33  40 E17G26    30.06F
6HR MIN TEMP:  40; 6HR MAX TEMP:  57;

MENOMONIE      CLOUDY    58  35  43 NE18      30.07F
NEW RICHMOND   CLOUDY    55  32  41 E15G26    30.09S
OSCEOLA        MOSUNNY   56  33  41 E16       30.13S
$$

WIZ003>005-009-010-017-018-301900-
NORTH CENTRAL WISCONSIN

CITY           SKY/WX    TMP DP  RH WIND       PRES   REMARKS
MANITOWISH WTR CLOUDY    53  32  45 E9G18     30.16F
ARBOR VITAE    PTSUNNY   57  33  41 NE12      30.15S
WOODRUFF       PTSUNNY   57  33  41 NE12      30.15S
RHINELANDER    PTSUNNY   55  31  39 NE8       30.13F
6HR MIN TEMP:  38; 6HR MAX TEMP:  55;

EAGLE RIVER    CLOUDY    55  29  36 NE14      30.14F
LAND O LAKES   PTSUNNY   53  30  42 NE10G18   30.17F
PHILLIPS       MOSUNNY   54  32  43 NE10G24   30.12F
6HR MIN TEMP:  36; 6HR MAX TEMP:  54;

TOMAHAWK       CLOUDY    54  32  42 E12       30.14F
MEDFORD        CLOUDY    53  33  46 E16G22    30.10F
MERRILL        CLOUDY    55  33  42 E14       30.12F
$$

WIZ029-030-035-036-043>047-301900-
CENTRAL WISCONSIN

CITY           SKY/WX    TMP DP  RH WIND       PRES   REMARKS
WAUSAU         CLOUDY    56  30  37 E16       30.07F
6HR MIN TEMP:  42; 6HR MAX TEMP:  57;

MOSINEE        SUNNY     52  32  46 E13G20    30.11F
MARSHFIELD     CLOUDY    53  33  46 E13       30.06F
6HR MIN TEMP:  40; 6HR MAX TEMP:  53;

STEVENS POINT  CLOUDY    50  33  50 E17       30.10F
WAUPACA        CLOUDY    55  37  50 NE9G16    30.11F
WAUTOMA        CLOUDY    52  36  54 E15G23    30.07
6HR MIN TEMP:  40; 6HR MAX TEMP:  52;

WISC RAPIDS    CLOUDY    53  33  46 E15       30.08F
6HR MIN TEMP:  40; 6HR MAX TEMP:  53;

CAMP DOUGLAS   NOT AVBL
$$

WIZ011>013-019>022-031-037>040-048>050-301900-
NORTHEAST WISCONSIN

CITY           SKY/WX    TMP DP  RH WIND       PRES   REMARKS
ANTIGO         CLOUDY    54  32  43 E12G18    30.11F
SHAWANO        CLOUDY    56  33  42 E15G21    30.14F
OCONTO         PTSUNNY   52  32  45 NE12G23   30.15F
STURGEON BAY   CLOUDY    48  34  57 NE12      30.17F
6HR MIN TEMP:  39; 6HR MAX TEMP:  48;

GREEN BAY      CLOUDY    52  38  58 NE15      30.12F
6HR MIN TEMP:  43; 6HR MAX TEMP:  52;

MANITOWOC      NOT AVBL
APPLETON       CLOUDY    54  34  47 E14       30.09F
CLINTONVILLE   CLOUDY    54  32  43 E14G20    30.12F
OSHKOSH        CLOUDY    53  37  54 E14       30.09F
6HR MIN TEMP:  43; 6HR MAX TEMP:  53;

$$

WIZ032>034-041-042-053>061-301900-
SOUTHWEST WISCONSIN

CITY           SKY/WX    TMP DP  RH WIND       PRES   REMARKS
LA CROSSE      CLOUDY    51  35  54 E14G25    30.02F
6HR MIN TEMP:  44; 6HR MAX TEMP:  52;

SPARTA         CLOUDY    51  37  58 E14G22    30.04F
VIROQUA        CLOUDY    46  41  81 E15       30.00F
BOSCOBEL       LGT RAIN  49  44  83 E9        30.00F
6HR MIN TEMP:  46; 6HR MAX TEMP:  50; 6HR PCP:  0.05;

PRAIRIE DU CHI LGT RAIN  47  42  83 NE12G18   29.96F
PLATTEVILLE    CLOUDY    46  45  93 NE18G26   29.95F
$$

WIZ056-057-062-063-064-067-068-301900-
SOUTH CENTRAL WISCONSIN

CITY           SKY/WX    TMP DP  RH WIND       PRES   REMARKS
REEDSBURG      CLOUDY    49  40  70 E12G18    30.02F
BARABOO/DELLS  CLOUDY    49  38  66 E18G25    30.03F
LONE ROCK      NOT AVBL
MINERAL POINT  LGT RAIN  46  45  93 E16G22    29.97F
MADISON        LGT RAIN  48  41  76 E15       30.01F
6HR MIN TEMP:  43; 6HR MAX TEMP:  49; 6HR PCP:  0.02;

MIDDLETON      CLOUDY    49  43  81 E15G24    30.01F
WATERTOWN      CLOUDY    49  39  68 E14       30.02F
MONROE         LGT RAIN  45  43  93 NE14G23   29.97R
JANESVILLE     LGT RAIN  48  43  81 E18G24    29.98F
$$

WIZ051-052-058>065-066-070>072-301900-
SOUTHEAST WISCONSIN

CITY           SKY/WX    TMP DP  RH WIND       PRES   REMARKS
MILWAUKEE      CLOUDY    45  39  79 E17       30.05F
6HR MIN TEMP:  43; 6HR MAX TEMP:  46; 6HR PCP: TRACE;

WAUKESHA       LGT RAIN  45  36  70 E15G22    30.05F FOG
MILWAUKEE/TIMM CLOUDY    46  36  66 E12       30.07F
RACINE         LGT RAIN  45  39  79 E15       30.05F
6HR MIN TEMP:  43; 6HR MAX TEMP:  46; 6HR PCP: TRACE;

BURLINGTON     DRIZZLE   46  39  78 E14G21    30.02F
KENOSHA        LGT RAIN  45  40  82 E16       30.03F
6HR MIN TEMP:  44; 6HR MAX TEMP:  47; 6HR PCP:  0.02;

FOND DU LAC    CLOUDY    53  36  52 E16G22    30.07F
6HR MIN TEMP:  41; 6HR MAX TEMP:  53;

SHEBOYGAN      CLOUDY    49  39  68 E12       30.10F
6HR MIN TEMP:  39; 6HR MAX TEMP:  50;

WEST BEND      CLOUDY    48  36  61 E13G23    30.07F
JUNEAU         CLOUDY    49  37  62 E18G25    30.06F
$$

LSZ147-162-301900-
LAKE SUPERIOR

STATION/POSITION TIME  TEMP    WIND        PRES    WAVE
                       AIR SEA DIR/SP/G            HT/PER
                 (UTC) (F)     (DEG/KT/KT) (MB)    (FT/S)
W MID LAKE BUOY  1650   38 37   40/ 10/ 10 1026.9R   1/ 4
DEVILS ISLAND    1700   39      60/ 18/ 19 1026.3F
PORT WING        1533   41      30/ 21/ 25 1024.7
SAXON HARBOR     1700   40      40/ 21/ 26 1023.7
$$

LMZ867-665-643>646-301900-
LAKE MICHIGAN

STATION/POSITION TIME  TEMP    WIND        PRES    WAVE
                       AIR SEA DIR/SP/G            HT/PER
                 (UTC) (F)     (DEG/KT/KT) (MB)    (FT/S)
CHAMBERS ISLAND  1700   44      20/ 10/ 13 1022.0F
N MID LAKE BUOY  1650   39 39   20/ 10/ 12 1022.5F   1/ 3
NORTHPORT PIER   1700   43      70/ 10/ 12 1022.0F
ALGOMA LAKESHORE 1600           60/ 15/ 18   N/A
KEWAUNEE LAKESHO 1700   42      30/ 12/ 15 1020.7F
SHEBOYGAN LAKESH 1700   41      20/ 10/ 11 1020.9F
PORT WASHINGTON  1740   45      50/ 10/ 13 1019.3F
S MID LAKE BUOY  1650   43 40   70/ 12/ 14 1018.5F   1/ 3
KENOSHA   LAKESH 1700   43      80/ 16/ 18 1017.6F
$$

TC  - TEMPERATURE IN CELSIUS
VSB - VISIBILITY IN STATUTE MILES
WCI - WIND CHILL INDEX
HX  - HEAT INDEX




USA.gov is the U.S. government's official web portal to all federal, state and local government web resources and services.